Terminal Aerodrome Forecast
Issued by NWS

Home | Current Version | Previous Version | Text Only | Print | Product List | Glossary On
Versions: 1 2 3 4 5 6 7 8 9 10 11 12
000
FTUS45 KREV 011120
TAFMMH
TAF
KMMH 011120Z 0112/0212 VRB03KT P6SM FEW080 SCT180
     FM011900 10008KT P6SM VCSH BKN080 BKN180
     FM020100 29007KT P6SM SCT080 BKN180=

USA.gov is the U.S. government's official web portal to all federal, state and local government web resources and services.